Pasco, WA
on Friday, January 25, 2013

Friday
Previous Day Next Day
Daily Summary
 ActualAverageRecord
Temperature
Mean Temperature °F 36°F  
Max Temperature 34°F 43°F 57°F (1992)
Min Temperature 29°F 29°F 8°F (2008)
Degree Days
Heating Degree Days 33 29  
Month to date heating degree days 861 764  
Since 1 July heating degree days 2768 2980  
Cooling Degree Days 0 0  
Month to date cooling degree days 0 0  
Year to date cooling degree days 0 0  
Moisture
Dew Point 29°F   
Average Humidity 89    
Maximum Humidity 96    
Minimum Humidity 82    
Precipitation
Precipitation 0.04 in in 0.31 in (1975)
Month to date precipitation 0.33  
Year to date precipitation 0.33  
Snow
Snow 0.00 in in in ()
Snow Depth 0.00 in   
Wind
Wind Speed 2 mph   
Max Wind Speed 9 mph   
Max Gust Speed 10 mph   
Visibility 6 miles   
Events Rain   

Key: T is trace of precipitation, MM is missing value
Source: NWS Daily Summary
Time(PST)TemperatureDew PointHumidity Pressure Visibility Wind DirectionWind SpeedGust SpeedPrecipitationEvents Conditions
12:53 AM 30.9°F 27.0°F 85% 30.22 in 8.0 miles Calm Calm - N/A   Overcast
1:53 AM 30.9°F 27.0°F 85% 30.19 in 8.0 miles Calm Calm - 0.00 in   Overcast
2:53 AM 30.9°F 28.0°F 89% 30.19 in 8.0 miles Calm Calm - N/A   Overcast
3:53 AM 30.9°F 28.0°F 89% 30.18 in 7.0 miles Calm Calm - N/A   Mostly Cloudy
4:53 AM 30.0°F 28.0°F 92% 30.17 in 6.0 miles Calm Calm - N/A   Partly Cloudy
5:53 AM 30.0°F 28.0°F 92% 30.16 in 6.0 miles Calm Calm - N/A   Scattered Clouds
6:53 AM 28.9°F 27.0°F 92% 30.16 in 6.0 miles NW 3.5 mph - N/A   Clear
7:51 AM 28.4°F 26.6°F 93% 30.14 in 5.0 miles NW 3.5 mph - N/A   Mostly Cloudy
7:53 AM 28.9°F 27.0°F 92% 30.16 in 5.0 miles NW 3.5 mph - N/A   Mostly Cloudy
8:53 AM 30.9°F 28.0°F 89% 30.16 in 6.0 miles WNW 3.5 mph - N/A   Overcast
9:53 AM 32.0°F 28.0°F 85% 30.17 in 7.0 miles Calm Calm - 0.00 in   Overcast
10:00 AM 32.0°F 28.4°F 87% 30.15 in 6.0 miles Calm Calm - 0.00 in   Overcast
10:53 AM 32.0°F 28.0°F 85% 30.17 in 8.0 miles Calm Calm - 0.00 in   Overcast
11:53 AM 33.1°F 28.9°F 85% 30.14 in 4.0 miles Calm Calm - 0.00 in   Overcast
12:53 PM 33.1°F 28.9°F 85% 30.09 in 5.0 miles Calm Calm - N/A   Overcast
1:53 PM 33.1°F 28.9°F 85% 30.07 in 5.0 miles NW 3.5 mph - N/A   Overcast
2:53 PM 34.0°F 30.0°F 85% 30.06 in 5.0 miles NW 8.1 mph - N/A   Overcast
3:53 PM 34.0°F 30.9°F 89% 30.04 in 5.0 miles NW 4.6 mph - 0.00 in   Overcast
4:14 PM 33.8°F 30.2°F 87% 30.03 in 6.0 miles WNW 4.6 mph - N/A   Overcast
4:53 PM 34.0°F 30.9°F 89% 30.04 in 6.0 miles WNW 3.5 mph - N/A   Overcast
5:53 PM 33.1°F 30.0°F 89% 30.04 in 8.0 miles WNW 8.1 mph - N/A   Overcast
6:53 PM 33.1°F 30.0°F 89% 30.03 in 5.0 miles WNW 5.8 mph - 0.00 in   Light Drizzle
7:28 PM 33.8°F 30.2°F 87% 30.02 in 6.0 miles West 4.6 mph - 0.01 in Rain Light Rain
7:44 PM 33.8°F 30.2°F 87% 30.02 in 7.0 miles West 5.8 mph - 0.02 in Rain Light Rain
7:50 PM 33.8°F 30.2°F 87% 30.02 in 8.0 miles West 4.6 mph - 0.02 in   Overcast
7:53 PM 33.1°F 30.9°F 92% 30.03 in 8.0 miles WSW 3.5 mph - 0.02 in   Overcast
8:34 PM 33.8°F 32.0°F 93% 30.03 in 5.0 miles WSW 4.6 mph - 0.00 in Rain Light Rain
8:53 PM 33.1°F 32.0°F 96% 30.02 in 6.0 miles Calm Calm - 0.00 in Rain Light Rain
9:53 PM 33.1°F 30.9°F 92% 30.01 in 5.0 miles Calm Calm - 0.00 in   Overcast
10:53 PM 33.1°F 32.0°F 96% 30.01 in 5.0 miles ESE 3.5 mph - N/A   Overcast
11:53 PM 33.1°F 30.9°F 92% 30.03 in 3.0 miles NNW 3.5 mph - 0.02 in Rain Rain
Moon Phase
Jan. 25 Jan. 26 Feb. 03 Feb. 10 Feb. 17
Sunrise:07:26 AM (PST) Moon Rise:03:53 PM (PST)1/25
Sunset:04:51 PM (PST) Moon Set:06:10 AM (PST)1/25

Copyright © 2014 The Weather Underground, Inc.